McLouth, KS (66054)

4:50 PM CST on February 13, 2016 (GMT -0600)
Jefferson County | | Change Station
CLOSE
Current Station
Personal Weather Station
Location: McLouth, KS
Elevation: 1138 ft
Nearby Weather Stations

Elev 1138 ft 39.19 °N, 95.24 °W | Updated 20 minutes ago

Overcast
Overcast
20.9 °F
Feels Like 9 °F
N
12.0
Wind Variable Wind from East
Gusts 20.0 mph

Today
High -- | Low -- °F
--% Chance of Precip.
Yesterday
High -- | Low -- °F
Precip. -- in
Pressure 30.41 in
Visibility 10.0 miles
Clouds Overcast 6000 ft
Windchill 9 °F
Dew Point 3 °F
Humidity 46%
Rainfall 0.00 in
Snow Depth Not available.
7:15 AM 5:55 PM
Waxing Crescent, 35% visible
METAR KLWC 132152Z AUTO 10015KT 10SM OVC060 M04/M17 A3037 RMK AO2 SLP297 T10441172
Pressure 30.41 in
Visibility 10.0 miles
Clouds Overcast 6000 ft
Windchill 9 °F
Dew Point 3 °F
Humidity 46%
Rainfall 0.00 in
Snow Depth Not available.
7:15 AM 5:55 PM
Waxing Crescent, 35% visible
METAR KLWC 132152Z AUTO 10015KT 10SM OVC060 M04/M17 A3037 RMK AO2 SLP297 T10441172

10-Day Weather Forecast

Almanac

Astronomy

Feb. 13, 2016 Rise Set
Actual Time
Civil Twilight
Nautical Twilight
Astronomical Twilight
Moon
Length of Visible Light
Length of Day
Tomorrow will be .
, % of the Moon is Illuminated

Today's Extremes

State Highs State Lows

Community

WunderPhotos

Upload Photos

1,892,689 photos uploaded!

WunderBlog® & News

Nearby

Air Quality

  Air Quality AQ Index Pollutant
Not available.

Snow Depth

Station Depth Elevation

Earthquake Activity

City Distance Mag. Time & Date
Minimum magnitude displayed is 2.5.

Coastal Water Temperatures

Place Temperature

Stations

Nearby Weather Stations

Station Location Temp. Windchill Dew Point Humidity Wind Precip. Elev Updated Type
                   

Watches & Warnings

There are currently no watches in effect.